Tracking 30746 objects as of 20-Jun-2025
HD Live streaming from Space Station
objects crossing your sky now

METEOR 1-14

Track METEOR 1-14 now!
10-day predictions
METEOR 1-14 is classified as:


NORAD ID: 6392
Int'l Code: 1973-015A
Perigee: 834.2 km
Apogee: 912.3 km
Inclination: 81.2 °
Period: 102.3 minutes
Semi major axis: 7244 km
RCS: 4.8967 m2 (large)
Launch date: March 20, 1973
Source: Commonwealth of Independent States (former USSR) (CIS)
Launch site: PLESETSK MISSILE AND SPACE COMPLEX (PKMTR)
Your satellite tracking list
Your tracking list is empty




NASA's NSSDC Master Catalog

Two Line Element Set (TLE):
1 06392U 73015A   25170.70633313  .00000164  00000-0  87676-4 0  9996
2 06392  81.2377 280.1118 0053885 139.9333 220.5831 14.08028379681683
Source of the keplerian elements: AFSPC